Miscellaneous Local Product
Issued by NWS North Platte, NE

Home | Current Version | Previous Version | Text Only | Print | Product List | Glossary On
Versions: 1 2 3 4 5 6 7 8 9 10 11 12 13 14 15 16 17 18 19 20 21 22 23 24 25 26 27 28 29 30 31 32 33 34 35 36 37 38 39 40 41 42 43 44 45 46 47 48 49 50
000
AXUS43 KLBF 242010
MISLBF


WESTERN AND NORTH CENTRAL NEBRASKA HOURLY WEATHER ROUNDUP
NATIONAL WEATHER SERVICE NORTH PLATTE NE
300 PM CDT FRI OCT 24 2014

***STATIONS NOT REPORTING VARIABLES SUCH AS SKY/WEATHER OR
PRESSURE ARE PROVIDED BY THE NEBRASKA DEPARTMENT OF
ROADS...RAWS...AND APRS NETWORKS...AND ARE NOT UNDER
NATIONAL WEATHER SERVICE QUALITY CONTROL***

...OBSERVATIONS IN AND NEAR THE EASTERN PANHANDLE OF NEBRASKA...

CITY           SKY/WX    TMP DP  RH WIND       PRES   REMARKS
PINE RIDGE     SUNNY     76  35  22 VRB3      30.00F
CHADRON        SUNNY     77  35  21 NW10      29.99F
ALLIANCE       SUNNY     80  37  21 W9        30.02F
SIDNEY         SUNNY     82  30  15 NW22      30.07F
WHITECLAY        N/A     75  36  23 NW5         N/A
RUSHVILLE        N/A     80  21  11 W12         N/A
CRESCENT LAKE    N/A     81  29  15 NW10G20     N/A
LISCO            N/A     83  16   8 W13         N/A
BIG SPRINGS      N/A     77  38  24 NW7         N/A
LEWELLEN         N/A     88  27  11 W13         N/A
$$

...OBSERVATIONS IN NORTH CENTRAL NEBRASKA...

CITY           SKY/WX    TMP DP  RH WIND       PRES   REMARKS
VALENTINE      MOSUNNY   79  32  18 W7        29.95F
THEDFORD       SUNNY     82  34  17 N10       29.98S
AINSWORTH      MOSUNNY   75  34  22 CALM      29.96S
O`NEILL        PTSUNNY   74  33  22 CALM      29.94F
ORD            SUNNY     76  43  30 CALM      29.94S
BROKEN BOW     SUNNY     83  41  22 N7        29.95S
BROWNLEE         N/A     82  28  14 NW9         N/A
SPRINGVIEW       N/A     77  34  21 SE3         N/A
BREWSTER         N/A     83  37  19 W9          N/A
ROSE             N/A     81  40  22 CALM        N/A
NEWPORT          N/A     76  25  15 CALM        N/A
SARGENT          N/A     80  41  24 CALM        N/A
COMSTOCK         N/A     86  40  19 S5          N/A
CHAMBERS         N/A     73  40  31 CALM        N/A
EWING            N/A     72  44  36 CALM        N/A
$$

...OBSERVATIONS IN SOUTHWEST NEBRASKA AND FAR NORTHEAST COLORADO...

CITY           SKY/WX    TMP DP  RH WIND       PRES   REMARKS
WRAY           FAIR      89  22   9 W15       30.05F
HOLYOKE        FAIR      86  27  11 NW10G17   30.05F
IMPERIAL       MOSUNNY   84  30  14 W13       30.03F
OGALLALA       MOSUNNY   84  34  16 W14G21    30.02F
NORTH PLATTE   SUNNY     83  33  16 W13       29.97F
MCCOOK         MOSUNNY   84  38  19 SW9       29.99F
LEXINGTON      SUNNY     82  39  21 W9        29.96F
PAXTON           N/A     78  39  24 NW3         N/A
SUTHERLAND       N/A     87  30  13 W7          N/A
BRADY            N/A     81  40  22 S3          N/A
GOTHENBURG       N/A     78  38  23 W8          N/A
CALLAWAY         N/A     81  38  21 NW8         N/A
$$

...SOME WEATHER OBSERVATIONS FROM AROUND THE REGION...

CITY           SKY/WX    TMP DP  RH WIND       PRES   REMARKS
DENVER         MOSUNNY   80  19  10 CALM      30.15F
LARAMIE        SUNNY     70  20  15 W22G35    30.24F
CHEYENNE       MOSUNNY   76  23  14 W15G24    30.18F
SCOTTSBLUFF    SUNNY     81  32  17 W21G29    30.03F
RAPID CITY     SUNNY     70  38  31 N17G23    30.00F
PIERRE         SUNNY     76  35  22 W7        29.90F
WINNER         FAIR      77  25  14 CALM      29.93F
SIOUX FALLS    PTSUNNY   75  39  27 NW8       29.88S
OMAHA          CLOUDY    73  58  59 VRB6      29.90F
KANSAS CITY    CLOUDY    73  63  70 SW14      29.96F
WICHITA        MOSUNNY   81  61  50 S13       30.00F
HAYS           MOSUNNY   84  55  37 SW10      29.98F
LIBERAL        SUNNY     88  45  22 SW9       30.06F
GOODLAND       SUNNY     85  29  13 S3        30.06F
$$



USA.gov is the U.S. government's official web portal to all federal, state and local government web resources and services.